Weather in Chelles

France     48°52′52″N   2°35′32″E
temp.,
°C
wind,
m/s
gust,
m/s
humid.,
%
clouds,
%
prec.,
mm/h
press.,
hPa
HPBL,
m
11 april, sun
sun1123:00+8nw349379 2.7 1009242
02:00+7nnw3493100 2.8 1010365
05:00+6n4692100 0.1 1010528
08:00+4n4895100 0.3 1011639
11:00+3n51094100 1.4 1013741
14:00+5n5875100 1.5 10161224
17:00+6nne376679 0.0 10171116
20:00+7n485669 0.1 1019957
12 april, mon
mon1223:00+3n39660 0.0 1023384
02:00+2nnw26741 0.0 1025168
05:00+1nw11755 0.0 102752
08:00+2wnw13730 0.0 1028111
11:00+7nw35553 0.0 10291052
14:00+11wnw453797 0.0 10292285
17:00+10nw564892 0.1 10281684
20:00+7wnw467432 0.4 1029742
13 april, tue
tue1323:00+5nnw258061 0.1 1030466
02:00+4nne368895 0.2 1032508
05:00+1nne35875 0.0 1032241
08:00+1nne37815 0.0 1034230
11:00+6ne45542 0.0 1034954
14:00+9ne34345 0.0 10331809
17:00+10ne34325 0.0 10322099
20:00+8nne34455 0.0 10321024
14 april, wed
wed1423:00+5nne23555 0.0 1033107
02:00+3ne23658 0.0 1033103
05:00+2ne23695 0.0 103375
08:00+2nne227028 0.0 103398
11:00+8nne225266 0.0 1032693
14:00+10n234299 0.0 10311851
17:00+10nne334788 0.0 10301591
20:00+8nne356067 0.1 1030704
15 april, thu
thu1523:00+5nne3973100 0.0 1031332
02:00+3nne410801 0.0 1031295
05:00+1nne37860 0.0 1031210
08:00+1nne38850 0.0 1032244
11:00+7ne57585 0.0 1032892
14:00+10ne5641100 0.1 10312377
17:00+10ne574589 0.0 10301774
20:00+8ne595211 0.1 10301081